Regional Weather Roundup
Issued by NWS

Home | Current Version | Previous Version | Text Only | Print | Product List | Glossary On
Versions: 1 2 3 4 5 6 7 8 9 10 11 12 13 14 15 16 17 18 19 20 21 22 23 24 25 26 27 28 29 30 31 32 33 34 35 36 37 38 39 40 41 42 43 44 45 46 47 48 49 50
000
ASPQ40 PGUM 291712
RWRPQ
WEATHER ROUNDUP FOR THE MARIANAS AND MICRONESIA
NATIONAL WEATHER SERVICE TIYAN GU
300 AM CHST WED JUL 30 2014

GUZ001>004-291800-
MARIANA ISLANDS-

CITY           SKY/WX    TMP DP  RH WIND       PRES   REMARKS
GUAM AIRPORT   CLOUDY    79  75  89 NW18G30   29.77F
ANDERSEN AFB   MOCLDY    75  73  94 NW24G39   29.74S
ROTA AIRPORT   NOT AVBL
TINIAN AP      NOT AVBL
SAIPAN AP      PTCLDY   N/A N/A N/A NE10      29.75F

$$

PMZ161-291800-
REPUBLIC OF PALAU-

CITY           SKY/WX    TMP DP  RH WIND       PRES   REMARKS
KOROR AP       MOCLDY    82  79  89 S8        29.84F HX  93
KOROR WSO      MOCLDY    82  75  78 S14       29.83F

$$

PMZ171>174-291800-
FEDERATED STATES OF MICRONESIA-

CITY           SKY/WX    TMP DP  RH WIND       PRES   REMARKS
YAP AIRPORT    CLOUDY    81  75  83 VRB2      29.82S
CHUUK AP       CLOUDY    77  75  94 VRB3      29.85F
POHNPEI AP     NOT AVBL
POHNPEI WSO    MOCLDY    77  77 100 SE3       29.87F
KOSRAE AP      NOT AVBL

$$

PMZ181-291800-
REPUBLIC OF THE MARSHALL ISLANDS-

CITY           SKY/WX    TMP DP  RH WIND       PRES   REMARKS
KWAJALEIN AP   PTCLDY    81  73  78 S5        29.86S
MAJURO AP      NOT AVBL
MAJURO WSO     MOCLDY    81  73  78 SW6       29.85F

$$




USA.gov is the U.S. government's official web portal to all federal, state and local government web resources and services.